CW7352 Weather Reports


time (UTC)temp
F
wind
direction
speed
knots
gust
knots
rain 1hr
in
rain 24hr
in
rain mn
in
humidity
%
barometer
mb
20260507195003 48 0 0.0 0.0 0.00 0.00 0.00 78 1019.3
20260507194216 48 0 0.0 0.0 0.00 0.00 0.00 77 1019.2
20260507193003 50 309 0.0 3.5 0.00 0.00 0.00 76 1019.1
20260507192216 50 316 0.0 3.5 0.00 0.00 0.00 75 1019.0
20260507191216 50 358 0.0 4.3 0.00 0.00 0.00 75 1019.0
20260507190004 51 355 0.0 1.7 0.00 0.00 0.00 74 1018.8
20260507185003 52 356 0.0 4.3 0.00 0.00 0.00 73 1018.7
20260507184003 52 0 0.0 0.0 0.00 0.00 0.00 73 1018.6
20260507183218 52 0 0.0 0.0 0.00 0.00 0.00 72 1018.5
20260507182218 52 0 0.0 0.0 0.00 0.00 0.00 71 1018.5
20260507181003 53 0 0.0 0.0 0.00 0.00 0.00 70 1018.5
20260507180003 54 0 0.0 0.0 0.00 0.00 0.00 70 1018.4
20260507175218 54 342 0.0 5.2 0.00 0.00 0.00 69 1018.3
20260507174003 54 317 0.0 0.9 0.00 0.00 0.00 68 1018.2
20260507173003 54 325 0.9 8.7 0.00 0.00 0.00 67 1018.1
20260507172003 54 315 0.9 6.1 0.00 0.00 0.00 67 1018.1
20260507171003 54 346 0.0 6.1 0.00 0.00 0.00 66 1018.1
20260507170003 55 315 0.9 9.6 0.00 0.00 0.00 62 1018.0
20260507165217 55 345 0.0 5.2 0.00 0.00 0.00 61 1017.9
20260507164217 55 322 0.9 5.2 0.00 0.00 0.00 59 1017.9
20260507163003 56 343 0.0 9.6 0.00 0.00 0.00 56 1017.9
20260507162003 56 352 0.9 1.7 0.00 0.00 0.00 56 1017.9
20260507161003 56 345 0.9 10.4 0.00 0.00 0.00 58 1018.0
20260507160003 56 325 0.0 7.0 0.00 0.00 0.00 58 1017.9
20260507155003 56 356 9.6 9.6 0.00 0.00 0.00 58 1017.9
20260507154003 57 326 0.9 8.7 0.00 0.00 0.00 58 1017.8
20260507153003 58 324 0.9 9.6 0.00 0.00 0.00 57 1017.8
20260507152217 58 341 0.0 9.6 0.00 0.00 0.00 57 1017.8
20260507151003 59 348 0.9 6.1 0.00 0.00 0.00 58 1017.8
20260507150003 59 353 0.0 11.3 0.00 0.00 0.00 54 1017.7
20260507145003 61 289 0.0 4.3 0.00 0.00 0.00 52 1017.7
20260507144003 63 346 0.0 9.6 0.00 0.00 0.00 47 1017.6
20260507143003 63 317 0.0 5.2 0.00 0.00 0.00 49 1017.7
20260507142003 62 338 0.9 12.2 0.00 0.00 0.00 49 1017.8
20260507141003 62 349 0.9 13.9 0.00 0.00 0.00 50 1017.8
20260507140003 63 332 0.0 10.4 0.00 0.00 0.00 49 1017.8
20260507135003 63 342 0.0 5.2 0.00 0.00 0.00 49 1017.8
20260507134003 63 357 0.0 10.4 0.00 0.00 0.00 47 1017.8
20260507133003 64 319 0.9 10.4 0.00 0.00 0.00 48 1017.8
20260507132003 63 342 0.9 12.2 0.00 0.00 0.00 50 1017.7
20260507131003 64 341 0.9 10.4 0.00 0.00 0.00 50 1017.6
20260507130003 64 340 0.0 10.4 0.00 0.00 0.00 48 1017.6
20260507125003 63 329 0.9 10.4 0.00 0.00 0.00 50 1017.5
20260507124003 63 344 0.9 8.7 0.00 0.00 0.00 50 1017.5
20260507123003 64 337 0.0 8.7 0.00 0.00 0.00 48 1017.4
20260507122003 64 346 0.0 8.7 0.00 0.00 0.00 48 1017.4
20260507121003 63 330 0.9 9.6 0.00 0.00 0.00 49 1017.4
20260507120004 62 338 1.7 10.4 0.00 0.00 0.00 51 1017.3
20260507115217 62 337 0.9 13.9 0.00 0.00 0.00 51 1017.3
20260507114217 62 334 0.9 11.3 0.00 0.00 0.00 52 1017.3
20260507113003 62 304 0.0 8.7 0.00 0.00 0.00 53 1017.2
20260507112003 61 340 0.9 8.7 0.00 0.00 0.00 54 1017.2
20260507111003 61 355 0.0 4.3 0.00 0.00 0.00 53 1017.3
20260507110003 61 328 0.0 9.6 0.00 0.00 0.00 55 1017.2
20260507105003 60 351 0.9 11.3 0.00 0.00 0.00 55 1017.2
20260507104003 59 328 0.9 8.7 0.00 0.00 0.00 56 1017.2
20260507103003 59 347 0.0 8.7 0.00 0.00 0.00 56 1017.2
20260507102003 59 314 0.9 8.7 0.00 0.00 0.00 56 1017.2
20260507101003 59 334 0.9 5.2 0.00 0.00 0.00 55 1017.1
20260507100003 58 0 0.0 0.0 0.00 0.00 0.00 54 1017.0
20260507095003 58 326 0.9 8.7 0.00 0.00 0.00 53 1016.9
20260507094003 58 341 0.9 0.9 0.00 0.00 0.00 53 1016.9
20260507093003 56 339 0.9 6.1 0.00 0.00 0.00 52 1016.9
20260507092003 55 326 5.2 5.2 0.00 0.00 0.00 51 1016.9
20260507091003 56 342 6.1 6.1 0.00 0.00 0.00 53 1016.8
20260507090004 55 359 5.2 5.2 0.00 0.00 0.00 55 1016.8
20260507085216 54 322 0.0 5.2 0.00 0.00 0.00 60 1016.7
20260507084216 54 349 0.9 6.1 0.00 0.00 0.00 65 1016.7
20260507083003 54 319 6.1 6.1 0.00 0.00 0.00 69 1016.5
20260507082216 54 0 0.0 0.0 0.00 0.00 0.00 72 1016.5
20260507081003 54 0 0.0 0.0 0.00 0.00 0.00 74 1016.4
20260507080003 53 0 0.0 0.0 0.00 0.00 0.00 74 1016.4
20260507075003 52 0 0.0 0.0 0.00 0.00 0.00 74 1016.3
20260507074003 52 0 0.0 0.0 0.00 0.00 0.00 76 1016.2
20260507073003 52 0 0.0 0.0 0.00 0.00 0.00 77 1016.1
20260507072218 52 0 0.0 0.0 0.00 0.00 0.00 77 1016.1
20260507071003 52 0 0.0 0.0 0.00 0.00 0.00 77 1015.9
20260507070005 51 0 0.0 0.0 0.00 0.00 0.00 78 1015.8
20260507065003 51 0 0.0 0.0 0.00 0.00 0.00 79 1015.8
20260507064003 50 312 0.0 4.3 0.00 0.00 0.00 81 1015.7
20260507063003 49 303 0.0 3.5 0.00 0.00 0.00 82 1015.7
20260507062003 48 349 0.9 3.5 0.00 0.00 0.00 84 1015.7
20260507061003 47 330 4.3 4.3 0.00 0.00 0.00 88 1015.6
20260507060003 46 0 0.0 0.0 0.00 0.00 0.00 90 1015.6
20260507055003 46 0 0.0 0.0 0.00 0.00 0.00 90 1015.6
20260507054003 44 0 0.0 0.0 0.00 0.00 0.00 90 1015.5
20260507053003 44 0 0.0 0.0 0.00 0.00 0.00 90 1015.4
20260507052003 43 0 0.0 0.0 0.00 0.00 0.00 90 1015.4
20260507051217 41 0 0.0 0.0 0.00 0.00 0.00 89 1015.4
20260507050217 40 0 0.0 0.0 0.00 0.00 0.00 89 1015.3
20260507045003 39 0 0.0 0.0 0.00 0.00 0.00 88 1015.2
20260507044003 38 0 0.0 0.0 0.00 0.00 0.00 87 1015.2
20260507043003 38 0 0.0 0.0 0.00 0.00 0.00 87 1015.0
20260507042003 38 0 0.0 0.0 0.00 0.00 0.00 86 1015.0
20260507041003 37 0 0.0 0.0 0.00 0.00 0.00 86 1014.9
20260507040217 37 0 0.0 0.0 0.00 0.00 0.00 85 1014.8
20260507035003 36 0 0.0 0.0 0.00 0.00 0.00 84 1014.7
20260507034216 36 0 0.0 0.0 0.00 0.00 0.00 84 1014.7
20260507033003 36 0 0.0 0.0 0.00 0.00 0.00 83 1014.6
20260507032003 36 0 0.0 0.0 0.00 0.00 0.00 83 1014.6
20260507031003 36 0 0.0 0.0 0.00 0.00 0.00 82 1014.5
20260507030003 36 0 0.0 0.0 0.00 0.00 0.00 82 1014.5
20260507025003 37 0 0.0 0.0 0.00 0.00 0.00 81 1014.4
20260507024003 37 0 0.0 0.0 0.00 0.00 0.00 81 1014.4
20260507023003 37 0 0.0 0.0 0.00 0.00 0.00 80 1014.4
20260507022003 38 0 0.0 0.0 0.00 0.00 0.00 80 1014.4
20260507021003 38 0 0.0 0.0 0.00 0.00 0.00 80 1014.4
20260507020003 38 0 0.0 0.0 0.00 0.00 0.00 79 1014.4
20260507015003 38 0 0.0 0.0 0.00 0.00 0.00 78 1014.4
20260507014003 39 0 0.0 0.0 0.00 0.00 0.00 77 1014.3
20260507013003 39 0 0.0 0.0 0.00 0.00 0.00 77 1014.3
20260507012003 40 0 0.0 0.0 0.00 0.00 0.00 76 1014.3
20260507010003 41 0 0.0 0.0 0.00 0.00 0.00 75 1014.3
20260507005217 41 0 0.0 0.0 0.00 0.00 0.00 75 1014.3
20260507004003 42 0 0.0 0.0 0.00 0.00 0.00 74 1014.2
20260507003003 42 0 0.0 0.0 0.00 0.00 0.00 73 1014.2
20260507002003 43 0 0.0 0.0 0.00 0.00 0.00 72 1014.2
20260507001003 43 0 0.0 0.0 0.00 0.00 0.00 71 1014.1
20260507000003 43 0 0.0 0.0 0.00 0.00 0.00 70 1014.1
20260506235217 44 0 0.0 0.0 0.00 0.00 0.00 69 1013.9
20260506234217 44 0 0.0 0.0 0.00 0.00 0.00 68 1013.9
20260506233003 44 0 0.0 0.0 0.00 0.00 0.00 66 1013.9
20260506232003 45 0 0.0 0.0 0.00 0.00 0.00 66 1013.9
20260506231003 45 0 0.0 0.0 0.00 0.00 0.00 64 1013.9
20260506230003 45 92 0.9 0.9 0.00 0.00 0.00 64 1013.8
20260506225003 45 175 0.9 0.9 0.00 0.00 0.00 64 1013.7
20260506224217 45 0 0.0 0.0 0.00 0.00 0.00 63 1013.7
20260506223216 45 0 1.7 1.7 0.00 0.00 0.00 64 1013.6
20260506222003 45 172 0.0 1.7 0.00 0.00 0.00 65 1013.7
20260506221003 45 178 0.9 6.1 0.00 0.00 0.00 66 1013.7
20260506220004 45 184 0.9 5.2 0.00 0.00 0.00 65 1013.7
20260506215003 44 182 6.1 6.1 0.00 0.00 0.00 66 1013.7
20260506214003 45 164 5.2 5.2 0.00 0.00 0.00 66 1013.6
20260506213003 45 226 1.7 1.7 0.00 0.00 0.00 67 1013.5
20260506212003 46 199 4.3 4.3 0.00 0.00 0.00 67 1013.6
20260506211218 46 178 5.2 5.2 0.00 0.00 0.00 68 1013.5
20260506210003 46 0 0.0 0.0 0.00 0.00 0.00 70 1013.4
20260506205003 47 0 0.0 0.0 0.00 0.00 0.00 71 1013.3
20260506204003 48 0 0.0 0.0 0.00 0.00 0.00 73 1013.4
20260506203218 48 0 0.0 0.0 0.00 0.00 0.00 74 1013.3
20260506202003 49 0 0.0 0.0 0.00 0.00 0.00 75 1013.2
20260506201003 50 0 0.0 0.0 0.00 0.00 0.00 76 1013.1
20260506200003 50 0 0.0 0.0 0.00 0.00 0.00 76 1013.1